Погода в Волошино

Россия / Ростовская область     48°55′19″N   39°55′58″E
темп.,
°C
ветер,
м/с
пор.,
м/с
влажн.,
%
обл.,
%
осадки,
мм/ч
давл.,
гПа
погр.,
м
14 мая, пт
пт1400:00+15юв34862 0.0 101548
03:00+14в358756 0.0 101568
06:00+15в4108445 0.0 1014207
09:00+21юв61162100 0.0 1014637
12:00+25юв7951100 0.0 1013975
15:00+27юв564743 0.0 10121207
18:00+24юв586340 0.0 1011382
21:00+19ююв46835 0.0 101269
15 мая, сб
сб1500:00+17ююв348941 0.0 101261
03:00+16ююв22901 0.0 101225
06:00+17юз2492100 1.1 1013145
09:00+21ююв116559 2.1 1013317
12:00+25зсз33535 0.0 10141030
15:00+26з22455 0.0 10141506
18:00+25з12517 0.0 1013838
21:00+20ссз2262100 0.0 101411
16 мая, вс
вс1600:00+18ссв347294 0.0 101449
03:00+16ссв3677100 0.0 1014105
06:00+17ссв398361 0.0 1013220
09:00+23всв566480 0.0 1013569
12:00+25вюв554121 0.0 1012867
15:00+27юв683924 0.0 10111308
18:00+25в365592 0.0 1010185
21:00+20всв48615 0.0 1010101
17 мая, пн
пн1700:00+18вюв5146399 0.0 1009258
03:00+17вюв5135887 0.0 1009223
06:00+17вюв51560100 0.0 1009280
09:00+23вюв715492 0.0 1009651
12:00+27вюв915385 0.0 10081584
15:00+28юв713420 0.0 10082026
18:00+26ююв49545 0.0 1008310
21:00+20юв456961 0.0 100870
18 мая, вт
вт1800:00+18ююв3580100 0.0 100976
03:00+17ю3493100 0.9 101085
06:00+18юв229099 1.8 101166
09:00+22ююз457493 1.8 1011618
12:00+22юз4568100 0.0 1012784
15:00+23юз5666100 0.8 10121000
18:00+20вюв4582100 3.2 1012134
21:00+17ю3592100 5.0 1013111